Time,TemperatureF,DewpointF,PressureIn,WindDirection,WindDirectionDegrees,WindSpeedMPH,WindSpeedGustMPH,Humidity,HourlyPrecipIn,Conditions,Clouds,dailyrainin,SolarRadiationWatts/m^2,SoftwareType,DateUTC
2013-07-11 00:01:00,72.4,71.8,29.97,SSW,197,0.0,2.0,98,0.00,,,0.00,0,WeatherCatV1.10B1570,2013-07-11 04:01:00,
2013-07-11 00:06:00,72.5,71.9,29.97,SSW,197,0.0,0.0,98,0.00,,,0.00,0,WeatherCatV1.10B1570,2013-07-11 04:06:00,
2013-07-11 00:11:00,72.4,71.8,29.97,SSW,197,0.0,2.0,98,0.00,,,0.00,0,WeatherCatV1.10B1570,2013-07-11 04:11:00,
2013-07-11 00:16:00,72.4,71.8,29.97,SSW,197,0.0,1.0,98,0.00,,,0.00,0,WeatherCatV1.10B1570,2013-07-11 04:16:00,
2013-07-11 00:21:00,72.3,71.7,29.96,SSW,197,0.0,2.0,98,0.00,,,0.00,0,WeatherCatV1.10B1570,2013-07-11 04:21:00,
2013-07-11 00:26:00,72.2,71.6,29.96,SSW,197,0.0,0.0,98,0.00,,,0.00,0,WeatherCatV1.10B1570,2013-07-11 04:26:00,
2013-07-11 00:31:00,72.1,71.5,29.96,SSW,197,0.0,0.0,98,0.00,,,0.00,0,WeatherCatV1.10B1570,2013-07-11 04:31:00,
2013-07-11 00:36:00,72.0,71.4,29.96,SSW,197,0.0,0.0,98,0.00,,,0.00,0,WeatherCatV1.10B1570,2013-07-11 04:36:00,
2013-07-11 00:41:00,71.9,71.3,29.95,SSW,197,0.0,0.0,98,0.00,,,0.00,0,WeatherCatV1.10B1570,2013-07-11 04:41:00,
2013-07-11 00:46:00,71.8,71.2,29.95,SSW,197,0.0,0.0,98,0.00,,,0.00,0,WeatherCatV1.10B1570,2013-07-11 04:46:00,
2013-07-11 00:51:00,71.7,71.1,29.96,SSW,197,0.0,0.0,98,0.00,,,0.00,0,WeatherCatV1.10B1570,2013-07-11 04:51:00,
2013-07-11 00:56:00,71.7,71.1,29.95,SSW,197,0.0,0.0,98,0.00,,,0.00,0,WeatherCatV1.10B1570,2013-07-11 04:56:00,
2013-07-11 01:01:00,71.7,71.1,29.95,SSW,197,0.0,0.0,98,0.00,,,0.00,0,WeatherCatV1.10B1570,2013-07-11 05:01:00,
2013-07-11 01:06:00,71.6,71.0,29.95,SSW,197,0.0,0.0,98,0.00,,,0.00,0,WeatherCatV1.10B1570,2013-07-11 05:06:00,
2013-07-11 01:11:00,71.6,71.0,29.95,SSW,197,0.0,0.0,98,0.00,,,0.00,0,WeatherCatV1.10B1570,2013-07-11 05:11:00,
2013-07-11 01:16:00,71.4,70.8,29.95,SSW,197,0.0,0.0,98,0.00,,,0.00,0,WeatherCatV1.10B1570,2013-07-11 05:16:00,
2013-07-11 01:21:00,71.4,70.8,29.95,SSW,197,0.0,0.0,98,0.00,,,0.00,0,WeatherCatV1.10B1570,2013-07-11 05:21:00,
2013-07-11 01:26:00,71.3,70.7,29.95,SSW,197,0.0,0.0,98,0.00,,,0.00,0,WeatherCatV1.10B1570,2013-07-11 05:26:00,
2013-07-11 01:31:00,71.2,70.6,29.94,SSW,197,0.0,0.0,98,0.00,,,0.00,0,WeatherCatV1.10B1570,2013-07-11 05:31:00,
2013-07-11 01:36:00,71.2,70.6,29.95,SSW,197,0.0,0.0,98,0.00,,,0.00,0,WeatherCatV1.10B1570,2013-07-11 05:36:00,
2013-07-11 01:41:00,71.2,70.6,29.94,SSW,197,0.0,1.0,98,0.00,,,0.00,0,WeatherCatV1.10B1570,2013-07-11 05:41:00,
2013-07-11 01:46:00,71.3,70.7,29.94,SSW,197,0.0,0.0,98,0.00,,,0.00,0,WeatherCatV1.10B1570,2013-07-11 05:46:00,
2013-07-11 01:51:00,71.3,70.7,29.94,SSW,197,0.0,0.0,98,0.00,,,0.00,0,WeatherCatV1.10B1570,2013-07-11 05:51:00,
2013-07-11 01:56:00,71.2,70.6,29.94,SSW,197,0.0,0.0,98,0.00,,,0.00,0,WeatherCatV1.10B1570,2013-07-11 05:56:00,
2013-07-11 02:01:00,71.2,70.6,29.94,SSW,197,1.0,1.0,98,0.00,,,0.00,0,WeatherCatV1.10B1570,2013-07-11 06:01:00,
2013-07-11 02:06:00,71.2,70.6,29.94,SSW,197,0.0,0.0,98,0.00,,,0.00,0,WeatherCatV1.10B1570,2013-07-11 06:06:00,
2013-07-11 02:11:00,71.1,70.5,29.94,SSW,197,0.0,0.0,98,0.00,,,0.00,0,WeatherCatV1.10B1570,2013-07-11 06:11:00,
2013-07-11 02:16:00,71.0,70.4,29.94,SSW,197,0.0,0.0,98,0.00,,,0.00,0,WeatherCatV1.10B1570,2013-07-11 06:16:00,
2013-07-11 02:21:00,70.9,70.3,29.94,SSW,197,0.0,0.0,98,0.00,,,0.00,0,WeatherCatV1.10B1570,2013-07-11 06:21:00,
2013-07-11 02:26:00,70.9,70.3,29.94,SSW,197,0.0,0.0,98,0.00,,,0.00,0,WeatherCatV1.10B1570,2013-07-11 06:26:00,
2013-07-11 02:31:00,71.0,70.4,29.93,SSW,197,0.0,0.0,98,0.00,,,0.00,0,WeatherCatV1.10B1570,2013-07-11 06:31:00,
2013-07-11 02:36:00,71.1,70.5,29.93,SSW,197,0.0,1.0,98,0.00,,,0.00,0,WeatherCatV1.10B1570,2013-07-11 06:36:00,
2013-07-11 02:41:00,71.1,70.5,29.93,SSW,197,0.0,0.0,98,0.00,,,0.00,0,WeatherCatV1.10B1570,2013-07-11 06:41:00,
2013-07-11 02:46:00,71.0,70.4,29.93,SSW,197,0.0,0.0,98,0.00,,,0.00,0,WeatherCatV1.10B1570,2013-07-11 06:46:00,
2013-07-11 02:51:00,70.9,70.3,29.93,SSW,197,0.0,0.0,98,0.00,,,0.00,0,WeatherCatV1.10B1570,2013-07-11 06:51:00,
2013-07-11 02:56:00,70.9,70.3,29.93,SSW,197,0.0,0.0,98,0.00,,,0.00,0,WeatherCatV1.10B1570,2013-07-11 06:56:00,
2013-07-11 03:01:00,70.9,70.3,29.93,SSW,201,0.0,0.0,98,0.00,,,0.00,0,WeatherCatV1.10B1570,2013-07-11 07:01:00,
2013-07-11 03:06:00,71.0,70.4,29.93,SSW,201,0.0,0.0,98,0.00,,,0.00,0,WeatherCatV1.10B1570,2013-07-11 07:06:00,
2013-07-11 03:11:00,71.1,70.5,29.94,SSW,201,0.0,0.0,98,0.00,,,0.00,0,WeatherCatV1.10B1570,2013-07-11 07:11:00,
2013-07-11 03:16:00,71.3,70.7,29.94,SSW,201,0.0,0.0,98,0.00,,,0.00,0,WeatherCatV1.10B1570,2013-07-11 07:16:00,
2013-07-11 03:21:00,71.4,70.8,29.94,SSW,201,0.0,0.0,98,0.00,,,0.00,0,WeatherCatV1.10B1570,2013-07-11 07:21:00,
2013-07-11 03:26:00,71.5,70.9,29.94,SSW,201,0.0,0.0,98,0.00,,,0.00,0,WeatherCatV1.10B1570,2013-07-11 07:26:00,
2013-07-11 03:31:00,71.6,71.0,29.94,SSW,201,0.0,0.0,98,0.00,,,0.00,0,WeatherCatV1.10B1570,2013-07-11 07:31:00,
2013-07-11 03:36:00,71.7,71.1,29.94,SSW,201,0.0,0.0,98,0.00,,,0.00,0,WeatherCatV1.10B1570,2013-07-11 07:36:00,
2013-07-11 03:41:00,71.9,71.3,29.94,SSW,201,0.0,0.0,98,0.00,,,0.00,0,WeatherCatV1.10B1570,2013-07-11 07:41:00,
2013-07-11 03:46:00,72.0,71.4,29.94,SSW,201,0.0,0.0,98,0.00,,,0.00,0,WeatherCatV1.10B1570,2013-07-11 07:46:00,
2013-07-11 03:51:00,72.0,71.4,29.94,SSW,201,0.0,0.0,98,0.00,,,0.00,0,WeatherCatV1.10B1570,2013-07-11 07:51:00,
2013-07-11 03:56:00,72.1,71.5,29.94,SSW,199,1.0,1.0,98,0.00,,,0.00,0,WeatherCatV1.10B1570,2013-07-11 07:56:00,
2013-07-11 04:01:00,72.2,71.6,29.94,SSW,199,0.0,0.0,98,0.00,,,0.00,0,WeatherCatV1.10B1570,2013-07-11 08:01:00,
2013-07-11 04:06:00,72.2,71.6,29.94,SSW,199,0.0,0.0,98,0.00,,,0.00,0,WeatherCatV1.10B1570,2013-07-11 08:06:00,
2013-07-11 04:11:00,72.2,71.6,29.94,SSW,199,0.0,0.0,98,0.00,,,0.00,0,WeatherCatV1.10B1570,2013-07-11 08:11:00,
2013-07-11 04:16:00,72.2,71.6,29.94,SSW,199,0.0,0.0,98,0.00,,,0.00,0,WeatherCatV1.10B1570,2013-07-11 08:16:00,
2013-07-11 04:21:00,72.2,71.6,29.95,SSW,199,0.0,0.0,98,0.00,,,0.00,0,WeatherCatV1.10B1570,2013-07-11 08:21:00,
2013-07-11 04:26:00,72.2,71.6,29.94,SSW,199,0.0,0.0,98,0.00,,,0.00,0,WeatherCatV1.10B1570,2013-07-11 08:26:00,
2013-07-11 04:31:00,72.2,71.6,29.95,SSW,199,0.0,1.0,98,0.00,,,0.00,0,WeatherCatV1.10B1570,2013-07-11 08:31:00,
2013-07-11 04:36:00,72.2,71.6,29.95,SSW,199,1.0,2.0,98,0.00,,,0.00,0,WeatherCatV1.10B1570,2013-07-11 08:36:00,
2013-07-11 04:41:00,72.2,71.6,29.95,SSW,199,0.0,1.0,98,0.00,,,0.00,0,WeatherCatV1.10B1570,2013-07-11 08:41:00,
2013-07-11 04:46:00,72.1,71.5,29.95,WSW,252,0.0,0.0,98,0.00,,,0.00,0,WeatherCatV1.10B1570,2013-07-11 08:46:00,
2013-07-11 04:51:00,72.1,71.5,29.95,WSW,252,0.0,2.0,98,0.00,,,0.00,0,WeatherCatV1.10B1570,2013-07-11 08:51:00,
2013-07-11 04:56:00,72.0,71.4,29.95,WSW,251,0.0,2.0,98,0.00,,,0.00,0,WeatherCatV1.10B1570,2013-07-11 08:56:00,
2013-07-11 05:01:00,72.0,71.4,29.95,SW,233,0.0,2.0,98,0.00,,,0.00,0,WeatherCatV1.10B1570,2013-07-11 09:01:00,
2013-07-11 05:06:00,71.9,71.3,29.95,SW,233,0.0,1.0,98,0.00,,,0.00,0,WeatherCatV1.10B1570,2013-07-11 09:06:00,
2013-07-11 05:11:00,71.9,71.3,29.95,SW,233,1.0,1.0,98,0.00,,,0.00,0,WeatherCatV1.10B1570,2013-07-11 09:11:00,
2013-07-11 05:16:00,71.8,71.2,29.95,WSW,240,0.0,2.0,98,0.00,,,0.00,0,WeatherCatV1.10B1570,2013-07-11 09:16:00,
2013-07-11 05:21:00,71.8,71.2,29.94,South,179,0.0,1.0,98,0.00,,,0.00,0,WeatherCatV1.10B1570,2013-07-11 09:21:00,
2013-07-11 05:26:00,71.7,71.1,29.94,South,179,0.0,0.0,98,0.00,,,0.00,0,WeatherCatV1.10B1570,2013-07-11 09:26:00,
2013-07-11 05:31:00,71.6,71.0,29.94,South,179,0.0,1.0,98,0.00,,,0.00,0,WeatherCatV1.10B1570,2013-07-11 09:31:00,
2013-07-11 05:36:00,71.5,70.9,29.94,South,179,0.0,1.0,98,0.00,,,0.00,0,WeatherCatV1.10B1570,2013-07-11 09:36:00,
2013-07-11 05:41:00,71.4,70.8,29.95,South,178,2.0,2.0,98,0.00,,,0.00,0,WeatherCatV1.10B1570,2013-07-11 09:41:00,
2013-07-11 05:46:00,71.3,70.7,29.95,South,178,1.0,1.0,98,0.00,,,0.00,0,WeatherCatV1.10B1570,2013-07-11 09:46:00,
2013-07-11 05:51:00,71.3,70.7,29.95,SSE,156,0.0,2.0,98,0.00,,,0.00,0,WeatherCatV1.10B1570,2013-07-11 09:51:00,
2013-07-11 05:56:00,71.2,70.6,29.95,South,178,0.0,1.0,98,0.00,,,0.00,0,WeatherCatV1.10B1570,2013-07-11 09:56:00,
2013-07-11 06:01:00,71.1,70.5,29.95,South,178,0.0,2.0,98,0.00,,,0.00,0,WeatherCatV1.10B1570,2013-07-11 10:01:00,
2013-07-11 06:06:00,71.1,70.5,29.95,SSW,195,0.0,2.0,98,0.00,,,0.00,0,WeatherCatV1.10B1570,2013-07-11 10:06:00,
2013-07-11 06:11:00,71.0,70.4,29.95,SE,136,0.0,2.0,98,0.00,,,0.00,0,WeatherCatV1.10B1570,2013-07-11 10:11:00,
2013-07-11 06:16:00,71.0,70.4,29.95,SE,144,0.0,1.0,98,0.00,,,0.00,5,WeatherCatV1.10B1570,2013-07-11 10:16:00,
2013-07-11 06:21:00,71.0,70.4,29.95,SE,144,0.0,0.0,98,0.00,,,0.00,7,WeatherCatV1.10B1570,2013-07-11 10:21:00,
2013-07-11 06:26:00,71.0,70.4,29.96,NNE,32,0.0,0.0,98,0.00,,,0.00,11,WeatherCatV1.10B1570,2013-07-11 10:26:00,
2013-07-11 06:31:00,71.0,70.4,29.96,NNE,17,0.0,0.0,98,0.00,,,0.00,19,WeatherCatV1.10B1570,2013-07-11 10:31:00,
2013-07-11 06:36:00,71.1,70.5,29.96,NNE,17,0.0,0.0,98,0.00,,,0.00,28,WeatherCatV1.10B1570,2013-07-11 10:36:00,
2013-07-11 06:41:00,71.2,70.6,29.96,SSE,158,0.0,0.0,98,0.00,,,0.00,33,WeatherCatV1.10B1570,2013-07-11 10:41:00,
2013-07-11 06:46:00,71.2,70.6,29.96,SSE,158,1.0,1.0,98,0.00,,,0.00,44,WeatherCatV1.10B1570,2013-07-11 10:46:00,
2013-07-11 06:51:00,71.3,70.7,29.96,ESE,114,2.0,2.0,98,0.00,,,0.00,39,WeatherCatV1.10B1570,2013-07-11 10:51:00,
2013-07-11 06:56:00,71.4,70.8,29.96,SE,128,0.0,1.0,98,0.00,,,0.00,39,WeatherCatV1.10B1570,2013-07-11 10:56:00,
2013-07-11 07:01:00,71.5,70.9,29.96,East,90,0.0,1.0,98,0.00,,,0.00,49,WeatherCatV1.10B1570,2013-07-11 11:01:00,
2013-07-11 07:06:00,71.6,71.0,29.97,East,90,0.0,0.0,98,0.00,,,0.00,49,WeatherCatV1.10B1570,2013-07-11 11:06:00,
2013-07-11 07:11:00,71.6,71.0,29.97,East,90,0.0,0.0,98,0.00,,,0.00,63,WeatherCatV1.10B1570,2013-07-11 11:11:00,
2013-07-11 07:16:00,71.6,71.0,29.97,East,90,0.0,0.0,98,0.00,,,0.00,88,WeatherCatV1.10B1570,2013-07-11 11:16:00,
2013-07-11 07:21:00,71.8,71.2,29.97,East,90,0.0,0.0,98,0.00,,,0.00,105,WeatherCatV1.10B1570,2013-07-11 11:21:00,
2013-07-11 07:26:00,71.9,71.3,29.97,East,90,0.0,0.0,98,0.00,,,0.00,98,WeatherCatV1.10B1570,2013-07-11 11:26:00,
2013-07-11 07:31:00,72.0,71.4,29.97,WSW,251,0.0,1.0,98,0.00,,,0.00,69,WeatherCatV1.10B1570,2013-07-11 11:31:00,
2013-07-11 07:36:00,72.0,71.4,29.97,West,261,0.0,0.0,98,0.00,,,0.00,67,WeatherCatV1.10B1570,2013-07-11 11:36:00,
2013-07-11 07:41:00,72.1,71.5,29.97,West,261,0.0,0.0,98,0.00,,,0.00,62,WeatherCatV1.10B1570,2013-07-11 11:41:00,
2013-07-11 07:46:00,72.1,71.5,29.97,West,261,0.0,0.0,98,0.00,,,0.00,44,WeatherCatV1.10B1570,2013-07-11 11:46:00,
2013-07-11 07:51:00,72.1,71.5,29.97,West,261,0.0,0.0,98,0.00,,,0.00,53,WeatherCatV1.10B1570,2013-07-11 11:51:00,
2013-07-11 07:56:00,72.2,71.6,29.97,West,261,0.0,0.0,98,0.00,,,0.00,65,WeatherCatV1.10B1570,2013-07-11 11:56:00,
2013-07-11 08:01:00,72.2,71.6,29.96,ESE,108,0.0,0.0,98,0.00,,,0.00,62,WeatherCatV1.10B1570,2013-07-11 12:01:00,
2013-07-11 08:06:00,72.3,71.7,29.97,SE,131,0.0,1.0,98,0.00,,,0.00,40,WeatherCatV1.10B1570,2013-07-11 12:06:00,
2013-07-11 08:11:00,72.4,71.8,29.97,ESE,122,0.0,0.0,98,0.00,,,0.00,35,WeatherCatV1.10B1570,2013-07-11 12:11:00,
2013-07-11 08:16:00,72.4,71.8,29.97,ESE,122,1.0,1.0,98,0.00,,,0.00,42,WeatherCatV1.10B1570,2013-07-11 12:16:00,
2013-07-11 08:21:00,72.4,71.8,29.97,ESE,122,0.0,0.0,98,0.00,,,0.00,67,WeatherCatV1.10B1570,2013-07-11 12:21:00,
2013-07-11 08:26:00,72.5,71.9,29.97,ESE,119,0.0,0.0,98,0.00,,,0.00,76,WeatherCatV1.10B1570,2013-07-11 12:26:00,
2013-07-11 08:31:00,72.6,72.0,29.97,SW,228,0.0,1.0,98,0.00,,,0.00,83,WeatherCatV1.10B1570,2013-07-11 12:31:00,
2013-07-11 08:36:00,72.7,72.1,29.97,SW,228,0.0,0.0,98,0.00,,,0.00,83,WeatherCatV1.10B1570,2013-07-11 12:36:00,
2013-07-11 08:41:00,72.8,72.2,29.97,SW,228,0.0,0.0,98,0.00,,,0.00,70,WeatherCatV1.10B1570,2013-07-11 12:41:00,
2013-07-11 08:46:00,72.8,71.9,29.97,SW,228,0.0,1.0,97,0.00,,,0.00,70,WeatherCatV1.10B1570,2013-07-11 12:46:00,
2013-07-11 08:51:00,72.8,71.9,29.97,North,355,0.0,2.0,97,0.00,,,0.00,76,WeatherCatV1.10B1570,2013-07-11 12:51:00,
2013-07-11 08:56:00,72.7,71.8,29.97,WSW,253,0.0,0.0,97,0.00,,,0.00,72,WeatherCatV1.10B1570,2013-07-11 12:56:00,
2013-07-11 09:01:00,72.8,71.9,29.97,WSW,242,0.0,0.0,97,0.00,,,0.00,53,WeatherCatV1.10B1570,2013-07-11 13:01:00,
2013-07-11 09:06:00,72.8,71.9,29.97,NNE,15,0.0,0.0,97,0.00,,,0.00,56,WeatherCatV1.10B1570,2013-07-11 13:06:00,
2013-07-11 09:11:00,72.6,71.7,29.97,NNE,16,0.0,0.0,97,0.00,,,0.00,51,WeatherCatV1.10B1570,2013-07-11 13:11:00,
2013-07-11 09:16:00,72.7,71.8,29.97,North,11,0.0,0.0,97,0.00,,,0.00,67,WeatherCatV1.10B1570,2013-07-11 13:16:00,
2013-07-11 09:21:00,72.8,71.9,29.97,SSW,193,0.0,1.0,97,0.00,,,0.00,63,WeatherCatV1.10B1570,2013-07-11 13:21:00,
2013-07-11 09:26:00,72.8,71.9,29.97,SSW,193,0.0,0.0,97,0.00,,,0.00,70,WeatherCatV1.10B1570,2013-07-11 13:26:00,
2013-07-11 09:31:00,72.9,72.0,29.97,SSW,193,0.0,2.0,97,0.00,,,0.00,77,WeatherCatV1.10B1570,2013-07-11 13:31:00,
2013-07-11 09:36:00,72.9,72.0,29.97,SSE,147,0.0,1.0,97,0.00,,,0.00,74,WeatherCatV1.10B1570,2013-07-11 13:36:00,
2013-07-11 09:41:00,73.0,72.1,29.97,ESE,107,0.0,0.0,97,0.00,,,0.00,54,WeatherCatV1.10B1570,2013-07-11 13:41:00,
2013-07-11 09:46:00,73.0,72.1,29.97,ESE,107,0.0,0.0,97,0.00,,,0.00,54,WeatherCatV1.10B1570,2013-07-11 13:46:00,
2013-07-11 09:51:00,73.1,72.2,29.97,NW,309,0.0,0.0,97,0.00,,,0.00,63,WeatherCatV1.10B1570,2013-07-11 13:51:00,
2013-07-11 09:56:00,73.0,72.1,29.97,NW,308,0.0,0.0,97,0.00,,,0.00,77,WeatherCatV1.10B1570,2013-07-11 13:56:00,
2013-07-11 10:01:00,73.1,72.2,29.97,NW,319,0.0,1.0,97,0.00,,,0.00,102,WeatherCatV1.10B1570,2013-07-11 14:01:00,
2013-07-11 10:06:00,73.2,72.3,29.97,West,272,0.0,0.0,97,0.00,,,0.00,97,WeatherCatV1.10B1570,2013-07-11 14:06:00,
2013-07-11 10:11:00,73.4,72.2,29.97,SSE,166,0.0,3.0,96,0.00,,,0.00,91,WeatherCatV1.10B1570,2013-07-11 14:11:00,
2013-07-11 10:16:00,73.5,72.3,29.97,SE,139,2.0,2.0,96,0.00,,,0.00,107,WeatherCatV1.10B1570,2013-07-11 14:16:00,
2013-07-11 10:21:00,73.5,72.3,29.97,NW,322,0.0,1.0,96,0.00,,,0.00,144,WeatherCatV1.10B1570,2013-07-11 14:21:00,
2013-07-11 10:26:00,73.7,72.5,29.97,WSW,244,1.0,1.0,96,0.00,,,0.00,156,WeatherCatV1.10B1570,2013-07-11 14:26:00,
2013-07-11 10:31:00,73.9,72.7,29.97,WSW,244,1.0,1.0,96,0.00,,,0.00,128,WeatherCatV1.10B1570,2013-07-11 14:31:00,
2013-07-11 10:36:00,74.1,72.6,29.97,WSW,242,0.0,0.0,95,0.00,,,0.00,148,WeatherCatV1.10B1570,2013-07-11 14:36:00,
2013-07-11 10:41:00,74.2,72.7,29.97,WSW,253,0.0,2.0,95,0.00,,,0.00,125,WeatherCatV1.10B1570,2013-07-11 14:41:00,
2013-07-11 10:46:00,74.2,72.7,29.97,WSW,253,0.0,0.0,95,0.00,,,0.00,142,WeatherCatV1.10B1570,2013-07-11 14:46:00,
2013-07-11 10:51:00,74.2,72.7,29.97,WSW,253,0.0,0.0,95,0.00,,,0.00,137,WeatherCatV1.10B1570,2013-07-11 14:51:00,
2013-07-11 10:56:00,74.4,73.2,29.97,WSW,253,0.0,0.0,96,0.00,,,0.00,91,WeatherCatV1.10B1570,2013-07-11 14:56:00,
2013-07-11 11:01:00,74.2,72.7,29.98,NNW,340,0.0,2.0,95,0.00,,,0.00,69,WeatherCatV1.10B1570,2013-07-11 15:01:00,
2013-07-11 11:06:00,74.3,72.8,29.98,SSW,205,0.0,0.0,95,0.00,,,0.00,97,WeatherCatV1.10B1570,2013-07-11 15:06:00,
2013-07-11 11:11:00,74.2,72.7,29.98,WNW,286,1.0,2.0,95,0.00,,,0.00,72,WeatherCatV1.10B1570,2013-07-11 15:11:00,
2013-07-11 11:16:00,74.2,72.7,29.98,West,281,0.0,0.0,95,0.00,,,0.00,56,WeatherCatV1.10B1570,2013-07-11 15:16:00,
2013-07-11 11:21:00,74.2,73.0,29.98,WNW,292,0.0,0.0,96,0.00,,,0.00,137,WeatherCatV1.10B1570,2013-07-11 15:21:00,
2013-07-11 11:26:00,74.3,72.8,29.98,WNW,292,0.0,0.0,95,0.00,,,0.00,123,WeatherCatV1.10B1570,2013-07-11 15:26:00,
2013-07-11 11:31:00,74.3,72.8,29.98,WNW,292,0.0,0.0,95,0.00,,,0.00,114,WeatherCatV1.10B1570,2013-07-11 15:31:00,
2013-07-11 11:36:00,74.5,73.0,29.98,WNW,293,0.0,0.0,95,0.00,,,0.00,137,WeatherCatV1.10B1570,2013-07-11 15:36:00,
2013-07-11 11:41:00,74.6,73.1,29.97,West,263,0.0,1.0,95,0.00,,,0.00,195,WeatherCatV1.10B1570,2013-07-11 15:41:00,
2013-07-11 11:46:00,74.9,73.4,29.97,West,263,0.0,0.0,95,0.00,,,0.00,165,WeatherCatV1.10B1570,2013-07-11 15:46:00,
2013-07-11 11:51:00,75.1,73.6,29.97,West,269,0.0,1.0,95,0.00,,,0.00,148,WeatherCatV1.10B1570,2013-07-11 15:51:00,
2013-07-11 11:56:00,75.1,73.6,29.98,West,269,0.0,1.0,95,0.00,,,0.00,105,WeatherCatV1.10B1570,2013-07-11 15:56:00,
2013-07-11 12:01:00,75.0,73.5,29.98,West,269,0.0,0.0,95,0.00,,,0.00,86,WeatherCatV1.10B1570,2013-07-11 16:01:00,
2013-07-11 12:06:00,75.0,73.1,29.98,West,269,0.0,0.0,94,0.00,,,0.00,144,WeatherCatV1.10B1570,2013-07-11 16:06:00,
2013-07-11 12:11:00,75.1,73.2,29.97,SSW,195,0.0,1.0,94,0.00,,,0.00,149,WeatherCatV1.10B1570,2013-07-11 16:11:00,
2013-07-11 12:16:00,75.1,73.2,29.97,East,85,0.0,1.0,94,0.00,,,0.00,144,WeatherCatV1.10B1570,2013-07-11 16:16:00,
2013-07-11 12:21:00,75.1,73.2,29.97,West,271,0.0,0.0,94,0.00,,,0.00,156,WeatherCatV1.10B1570,2013-07-11 16:21:00,
2013-07-11 12:26:00,75.1,73.2,29.97,West,271,0.0,0.0,94,0.00,,,0.00,113,WeatherCatV1.10B1570,2013-07-11 16:26:00,
2013-07-11 12:31:00,75.1,73.2,29.97,West,278,0.0,1.0,94,0.00,,,0.00,167,WeatherCatV1.10B1570,2013-07-11 16:31:00,
2013-07-11 12:36:00,75.1,73.2,29.97,SSE,159,0.0,1.0,94,0.00,,,0.00,165,WeatherCatV1.10B1570,2013-07-11 16:36:00,
2013-07-11 12:41:00,75.1,73.2,29.97,SSE,159,0.0,0.0,94,0.00,,,0.00,216,WeatherCatV1.10B1570,2013-07-11 16:41:00,
2013-07-11 12:46:00,74.8,72.6,29.97,SW,220,0.0,1.0,93,0.00,,,0.00,295,WeatherCatV1.10B1570,2013-07-11 16:46:00,
2013-07-11 12:51:00,75.2,73.3,29.96,SW,220,1.0,1.0,94,0.00,,,0.00,411,WeatherCatV1.10B1570,2013-07-11 16:51:00,
2013-07-11 12:56:00,75.3,72.8,29.96,SW,220,0.0,2.0,92,0.00,,,0.00,445,WeatherCatV1.10B1570,2013-07-11 16:56:00,
2013-07-11 13:01:00,76.2,73.4,29.95,SW,220,0.0,1.0,91,0.00,,,0.00,508,WeatherCatV1.10B1570,2013-07-11 17:01:00,
2013-07-11 13:06:00,76.6,73.4,29.95,SSW,209,0.0,1.0,90,0.00,,,0.00,568,WeatherCatV1.10B1570,2013-07-11 17:06:00,
2013-07-11 13:11:00,76.8,73.3,29.95,SW,227,0.0,2.0,89,0.00,,,0.00,652,WeatherCatV1.10B1570,2013-07-11 17:11:00,
2013-07-11 13:16:00,77.9,73.7,29.95,South,180,0.0,2.0,87,0.00,,,0.00,687,WeatherCatV1.10B1570,2013-07-11 17:16:00,
2013-07-11 13:21:00,77.5,73.0,29.95,South,181,0.0,1.0,86,0.00,,,0.00,443,WeatherCatV1.10B1570,2013-07-11 17:21:00,
2013-07-11 13:26:00,77.2,73.0,29.95,South,181,0.0,2.0,87,0.00,,,0.00,438,WeatherCatV1.10B1570,2013-07-11 17:26:00,
2013-07-11 13:31:00,78.1,73.9,29.95,South,181,0.0,1.0,87,0.00,,,0.00,517,WeatherCatV1.10B1570,2013-07-11 17:31:00,
2013-07-11 13:36:00,77.6,73.8,29.95,South,176,0.0,2.0,88,0.00,,,0.00,552,WeatherCatV1.10B1570,2013-07-11 17:36:00,
2013-07-11 13:41:00,78.2,73.7,29.94,WSW,247,0.0,2.0,86,0.00,,,0.00,552,WeatherCatV1.10B1570,2013-07-11 17:41:00,
2013-07-11 13:46:00,78.4,74.2,29.94,SW,215,0.0,2.0,87,0.00,,,0.00,497,WeatherCatV1.10B1570,2013-07-11 17:46:00,
2013-07-11 13:50:00,78.2,73.7,29.94,SSW,197,1.0,1.0,86,0.00,,,0.00,666,WeatherCatV1.10B1570,2013-07-11 17:50:00,
2013-07-11 13:55:00,78.6,74.0,29.94,SSW,197,0.0,1.0,86,0.00,,,0.00,568,WeatherCatV1.10B1570,2013-07-11 17:55:00,
2013-07-11 14:00:00,78.8,74.6,29.94,SSW,197,0.0,2.0,87,0.00,,,0.00,707,WeatherCatV1.10B1570,2013-07-11 18:00:00,
2013-07-11 14:05:00,79.1,74.2,29.94,SE,141,1.0,3.0,85,0.00,,,0.00,483,WeatherCatV1.10B1570,2013-07-11 18:05:00,
2013-07-11 14:10:00,79.0,74.4,29.93,South,177,0.0,2.0,86,0.00,,,0.00,605,WeatherCatV1.10B1570,2013-07-11 18:10:00,
2013-07-11 14:15:00,79.6,74.3,29.93,South,191,1.0,3.0,84,0.00,,,0.00,603,WeatherCatV1.10B1570,2013-07-11 18:15:00,
2013-07-11 14:20:00,80.0,74.4,29.93,South,178,1.0,2.0,83,0.00,,,0.00,570,WeatherCatV1.10B1570,2013-07-11 18:20:00,
2013-07-11 14:25:00,80.3,74.3,29.92,SSW,193,0.0,1.0,82,0.00,,,0.00,381,WeatherCatV1.10B1570,2013-07-11 18:25:00,
2013-07-11 14:30:00,79.2,73.9,29.92,South,182,0.0,1.0,84,0.00,,,0.00,383,WeatherCatV1.10B1570,2013-07-11 18:30:00,
2013-07-11 14:35:00,79.4,74.5,29.92,SSE,168,0.0,1.0,85,0.00,,,0.00,396,WeatherCatV1.10B1570,2013-07-11 18:35:00,
2013-07-11 14:40:00,79.3,74.4,29.92,SSE,168,0.0,0.0,85,0.00,,,0.00,487,WeatherCatV1.10B1570,2013-07-11 18:40:00,
2013-07-11 14:45:00,80.3,74.6,29.92,ENE,63,0.0,1.0,83,0.00,,,0.00,568,WeatherCatV1.10B1570,2013-07-11 18:45:00,
2013-07-11 14:51:00,80.7,75.0,29.91,WSW,249,1.0,2.0,83,0.00,,,0.00,538,WeatherCatV1.10B1570,2013-07-11 18:51:00,
2013-07-11 14:56:00,81.1,74.3,29.91,WSW,239,0.0,1.0,80,0.00,,,0.00,420,WeatherCatV1.10B1570,2013-07-11 18:56:00,
2013-07-11 15:01:00,81.0,74.6,29.91,WSW,256,0.0,1.0,81,0.00,,,0.00,376,WeatherCatV1.10B1570,2013-07-11 19:01:00,
2013-07-11 15:06:00,80.6,74.9,29.91,SSW,203,0.0,2.0,83,0.00,,,0.00,387,WeatherCatV1.10B1570,2013-07-11 19:06:00,
2013-07-11 15:11:00,80.0,74.4,29.91,SSW,203,0.0,2.0,83,0.00,,,0.00,563,WeatherCatV1.10B1570,2013-07-11 19:11:00,
2013-07-11 15:16:00,80.1,74.5,29.91,SSW,200,1.0,1.0,83,0.00,,,0.00,656,WeatherCatV1.10B1570,2013-07-11 19:16:00,
2013-07-11 15:21:00,81.2,74.4,29.91,WSW,245,0.0,2.0,80,0.00,,,0.00,643,WeatherCatV1.10B1570,2013-07-11 19:21:00,
2013-07-11 15:26:00,81.0,74.6,29.91,South,170,2.0,2.0,81,0.00,,,0.00,596,WeatherCatV1.10B1570,2013-07-11 19:26:00,
2013-07-11 15:31:00,81.6,74.4,29.91,WSW,238,0.0,1.0,79,0.00,,,0.00,436,WeatherCatV1.10B1570,2013-07-11 19:31:00,
2013-07-11 15:36:00,81.7,74.9,29.90,WNW,282,1.0,1.0,80,0.00,,,0.00,339,WeatherCatV1.10B1570,2013-07-11 19:36:00,
2013-07-11 15:41:00,80.5,74.8,29.91,SW,215,0.0,2.0,83,0.00,,,0.00,371,WeatherCatV1.10B1570,2013-07-11 19:41:00,
2013-07-11 15:46:00,80.3,74.6,29.90,North,9,1.0,2.0,83,0.00,,,0.00,403,WeatherCatV1.10B1570,2013-07-11 19:46:00,
2013-07-11 15:51:00,80.3,74.6,29.90,ESE,123,1.0,2.0,83,0.00,,,0.00,482,WeatherCatV1.10B1570,2013-07-11 19:51:00,
2013-07-11 15:56:00,80.1,74.8,29.90,South,188,0.0,1.0,84,0.00,,,0.00,387,WeatherCatV1.10B1570,2013-07-11 19:56:00,
2013-07-11 16:01:00,80.3,74.6,29.90,SSW,213,0.0,2.0,83,0.00,,,0.00,313,WeatherCatV1.10B1570,2013-07-11 20:01:00,
2013-07-11 16:06:00,80.3,74.6,29.90,SSW,213,1.0,2.0,83,0.00,,,0.00,515,WeatherCatV1.10B1570,2013-07-11 20:06:00,
2013-07-11 16:11:00,80.3,75.0,29.90,SSW,213,0.0,1.0,84,0.00,,,0.00,415,WeatherCatV1.10B1570,2013-07-11 20:11:00,
2013-07-11 16:16:00,80.9,74.5,29.90,SSW,213,0.0,1.0,81,0.00,,,0.00,376,WeatherCatV1.10B1570,2013-07-11 20:16:00,
2013-07-11 16:21:00,80.8,75.1,29.90,SSW,213,1.0,1.0,83,0.00,,,0.00,348,WeatherCatV1.10B1570,2013-07-11 20:21:00,
2013-07-11 16:26:00,80.4,75.5,29.90,South,185,1.0,1.0,85,0.00,,,0.00,422,WeatherCatV1.10B1570,2013-07-11 20:26:00,
2013-07-11 16:31:00,80.6,74.9,29.90,South,185,0.0,1.0,83,0.00,,,0.00,309,WeatherCatV1.10B1570,2013-07-11 20:31:00,
2013-07-11 16:36:00,80.5,75.2,29.90,SSE,164,3.0,4.0,84,0.00,,,0.00,234,WeatherCatV1.10B1570,2013-07-11 20:36:00,
2013-07-11 16:41:00,79.5,74.6,29.90,SSE,159,1.0,2.0,85,0.00,,,0.00,279,WeatherCatV1.10B1570,2013-07-11 20:41:00,
2013-07-11 16:46:00,79.2,74.6,29.90,SSE,160,1.0,2.0,86,0.00,,,0.00,301,WeatherCatV1.10B1570,2013-07-11 20:46:00,
2013-07-11 16:51:00,79.2,74.6,29.90,SSE,161,0.0,1.0,86,0.00,,,0.00,330,WeatherCatV1.10B1570,2013-07-11 20:51:00,
2013-07-11 16:56:00,79.4,75.2,29.90,SSE,161,0.0,0.0,87,0.00,,,0.00,315,WeatherCatV1.10B1570,2013-07-11 20:56:00,
2013-07-11 17:01:00,79.5,74.9,29.90,SSE,161,0.0,2.0,86,0.00,,,0.00,279,WeatherCatV1.10B1570,2013-07-11 21:01:00,
2013-07-11 17:06:00,79.8,75.2,29.90,West,277,0.0,1.0,86,0.00,,,0.00,297,WeatherCatV1.10B1570,2013-07-11 21:06:00,
2013-07-11 17:11:00,79.8,74.9,29.90,West,276,0.0,1.0,85,0.00,,,0.00,287,WeatherCatV1.10B1570,2013-07-11 21:11:00,
2013-07-11 17:16:00,79.5,74.6,29.90,South,176,2.0,3.0,85,0.00,,,0.00,281,WeatherCatV1.10B1570,2013-07-11 21:16:00,
2013-07-11 17:21:00,79.3,74.7,29.90,South,176,2.0,2.0,86,0.00,,,0.00,278,WeatherCatV1.10B1570,2013-07-11 21:21:00,
2013-07-11 17:26:00,79.3,74.4,29.90,South,176,0.0,3.0,85,0.00,,,0.00,274,WeatherCatV1.10B1570,2013-07-11 21:26:00,
2013-07-11 17:31:00,78.9,74.3,29.90,South,176,1.0,2.0,86,0.00,,,0.00,345,WeatherCatV1.10B1570,2013-07-11 21:31:00,
2013-07-11 17:36:00,79.2,75.0,29.89,South,180,1.0,3.0,87,0.00,,,0.00,246,WeatherCatV1.10B1570,2013-07-11 21:36:00,
2013-07-11 17:41:00,79.3,74.4,29.89,South,180,0.0,1.0,85,0.00,,,0.00,209,WeatherCatV1.10B1570,2013-07-11 21:41:00,
2013-07-11 17:46:00,79.0,74.1,29.89,South,180,1.0,1.0,85,0.00,,,0.00,171,WeatherCatV1.10B1570,2013-07-11 21:46:00,
2013-07-11 17:51:00,78.8,74.2,29.90,South,180,0.0,2.0,86,0.00,,,0.00,174,WeatherCatV1.10B1570,2013-07-11 21:51:00,
2013-07-11 17:56:00,78.7,74.5,29.90,SSW,211,0.0,2.0,87,0.00,,,0.00,160,WeatherCatV1.10B1570,2013-07-11 21:56:00,
2013-07-11 18:01:00,78.6,74.4,29.90,SSW,192,1.0,3.0,87,0.00,,,0.00,169,WeatherCatV1.10B1570,2013-07-11 22:01:00,
2013-07-11 18:06:00,78.5,74.3,29.90,SSW,192,0.0,2.0,87,0.00,,,0.00,230,WeatherCatV1.10B1570,2013-07-11 22:06:00,
2013-07-11 18:11:00,78.5,74.3,29.90,SSW,192,0.0,1.0,87,0.00,,,0.00,241,WeatherCatV1.10B1570,2013-07-11 22:11:00,
2013-07-11 18:16:00,78.7,74.1,29.90,SSE,156,0.0,2.0,86,0.00,,,0.00,211,WeatherCatV1.10B1570,2013-07-11 22:16:00,
2013-07-11 18:21:00,78.8,74.6,29.90,SSE,156,0.0,1.0,87,0.00,,,0.00,188,WeatherCatV1.10B1570,2013-07-11 22:21:00,
2013-07-11 18:26:00,78.8,74.6,29.90,SSE,156,0.0,0.0,87,0.00,,,0.00,165,WeatherCatV1.10B1570,2013-07-11 22:26:00,
2013-07-11 18:31:00,78.8,74.2,29.90,NNW,342,0.0,2.0,86,0.00,,,0.00,137,WeatherCatV1.10B1570,2013-07-11 22:31:00,
2013-07-11 18:36:00,78.6,74.0,29.90,SSE,167,0.0,1.0,86,0.00,,,0.00,128,WeatherCatV1.10B1570,2013-07-11 22:36:00,
2013-07-11 18:41:00,78.5,73.6,29.89,SSE,167,1.0,1.0,85,0.00,,,0.00,134,WeatherCatV1.10B1570,2013-07-11 22:41:00,
2013-07-11 18:46:00,78.2,73.7,29.90,SSE,167,0.0,1.0,86,0.00,,,0.00,90,WeatherCatV1.10B1570,2013-07-11 22:46:00,
2013-07-11 18:51:00,78.1,73.6,29.90,SE,145,0.0,1.0,86,0.00,,,0.00,62,WeatherCatV1.10B1570,2013-07-11 22:51:00,
2013-07-11 18:56:00,77.8,73.3,29.90,SSE,147,0.0,0.0,86,0.00,,,0.00,40,WeatherCatV1.10B1570,2013-07-11 22:56:00,
2013-07-11 19:01:00,77.6,73.4,29.90,SSE,147,0.0,2.0,87,0.00,,,0.00,26,WeatherCatV1.10B1570,2013-07-11 23:01:00,
2013-07-11 19:06:00,77.5,73.7,29.90,ESE,114,0.0,2.0,88,0.00,,,0.00,23,WeatherCatV1.10B1570,2013-07-11 23:06:00,
2013-07-11 19:11:00,77.3,73.5,29.89,ESE,117,1.0,3.0,88,0.00,,,0.00,21,WeatherCatV1.10B1570,2013-07-11 23:11:00,
2013-07-11 19:16:00,77.1,73.6,29.89,SSE,159,0.0,2.0,89,0.00,,,0.00,19,WeatherCatV1.10B1570,2013-07-11 23:16:00,
2013-07-11 19:21:00,77.2,73.7,29.90,SSE,159,0.0,1.0,89,0.00,,,0.00,14,WeatherCatV1.10B1570,2013-07-11 23:21:00,
2013-07-11 19:26:00,77.1,73.6,29.90,WSW,243,0.0,1.0,89,0.00,,,0.00,14,WeatherCatV1.10B1570,2013-07-11 23:26:00,
2013-07-11 19:31:00,76.8,73.3,29.90,WSW,240,0.0,2.0,89,0.00,,,0.00,16,WeatherCatV1.10B1570,2013-07-11 23:31:00,
2013-07-11 19:36:00,76.8,73.3,29.89,SSW,212,0.0,1.0,89,0.00,,,0.00,19,WeatherCatV1.10B1570,2013-07-11 23:36:00,
2013-07-11 19:41:00,76.6,73.4,29.89,SSW,212,0.0,2.0,90,0.00,,,0.00,16,WeatherCatV1.10B1570,2013-07-11 23:41:00,
2013-07-11 19:46:00,76.5,73.3,29.89,South,176,2.0,2.0,90,0.00,,,0.00,12,WeatherCatV1.10B1570,2013-07-11 23:46:00,
2013-07-11 19:51:00,76.4,73.2,29.89,South,176,0.0,0.0,90,0.00,,,0.00,9,WeatherCatV1.10B1570,2013-07-11 23:51:00,
2013-07-11 19:56:00,76.4,73.2,29.90,NNW,346,0.0,1.0,90,0.00,,,0.00,7,WeatherCatV1.10B1570,2013-07-11 23:56:00,
2013-07-11 20:01:00,76.3,73.5,29.90,NNW,346,0.0,0.0,91,0.00,,,0.00,5,WeatherCatV1.10B1570,2013-07-12 00:01:00,
2013-07-11 20:06:00,76.2,73.4,29.90,NW,315,0.0,0.0,91,0.00,,,0.00,0,WeatherCatV1.10B1570,2013-07-12 00:06:00,
2013-07-11 20:11:00,76.3,73.5,29.90,WSW,249,0.0,0.0,91,0.00,,,0.00,0,WeatherCatV1.10B1570,2013-07-12 00:11:00,
2013-07-11 20:16:00,76.1,73.6,29.89,WSW,245,0.0,0.0,92,0.00,,,0.00,0,WeatherCatV1.10B1570,2013-07-12 00:16:00,
2013-07-11 20:21:00,75.8,73.6,29.89,SW,220,0.0,0.0,93,0.00,,,0.01,0,WeatherCatV1.10B1570,2013-07-12 00:21:00,
2013-07-11 20:26:00,75.5,73.3,29.89,SW,220,0.0,0.0,93,0.00,,,0.01,0,WeatherCatV1.10B1570,2013-07-12 00:26:00,
2013-07-11 20:31:00,75.2,73.3,29.89,SSW,202,1.0,1.0,94,0.00,,,0.01,0,WeatherCatV1.10B1570,2013-07-12 00:31:00,
2013-07-11 20:36:00,75.0,73.5,29.89,SSW,202,1.0,1.0,95,0.00,,,0.01,0,WeatherCatV1.10B1570,2013-07-12 00:36:00,
2013-07-11 20:41:00,74.9,73.4,29.89,SSW,202,0.0,1.0,95,0.00,,,0.01,0,WeatherCatV1.10B1570,2013-07-12 00:41:00,
2013-07-11 20:46:00,74.8,73.3,29.90,SSW,202,0.0,0.0,95,0.00,,,0.01,0,WeatherCatV1.10B1570,2013-07-12 00:46:00,
2013-07-11 20:51:00,74.8,73.3,29.90,SSW,202,0.0,0.0,95,0.00,,,0.01,0,WeatherCatV1.10B1570,2013-07-12 00:51:00,
2013-07-11 20:56:00,74.9,73.7,29.91,WNW,303,1.0,2.0,96,0.00,,,0.01,0,WeatherCatV1.10B1570,2013-07-12 00:56:00,
2013-07-11 21:01:00,75.1,73.9,29.90,WNW,303,0.0,1.0,96,0.00,,,0.01,0,WeatherCatV1.10B1570,2013-07-12 01:01:00,
2013-07-11 21:06:00,75.0,73.8,29.90,WNW,303,0.0,0.0,96,0.00,,,0.01,0,WeatherCatV1.10B1570,2013-07-12 01:06:00,
2013-07-11 21:11:00,74.9,73.4,29.90,WNW,303,0.0,0.0,95,0.00,,,0.01,0,WeatherCatV1.10B1570,2013-07-12 01:11:00,
2013-07-11 21:16:00,74.9,73.7,29.90,NNW,331,0.0,0.0,96,0.00,,,0.01,0,WeatherCatV1.10B1570,2013-07-12 01:16:00,
2013-07-11 21:21:00,74.8,73.6,29.90,NNW,331,0.0,0.0,96,0.00,,,0.01,0,WeatherCatV1.10B1570,2013-07-12 01:21:00,
2013-07-11 21:26:00,74.9,73.7,29.91,NNW,331,0.0,0.0,96,0.00,,,0.01,0,WeatherCatV1.10B1570,2013-07-12 01:26:00,
2013-07-11 21:31:00,74.8,73.6,29.90,NNW,331,0.0,0.0,96,0.00,,,0.01,0,WeatherCatV1.10B1570,2013-07-12 01:31:00,
2013-07-11 21:36:00,74.7,73.5,29.91,NNW,331,0.0,0.0,96,0.00,,,0.01,0,WeatherCatV1.10B1570,2013-07-12 01:36:00,
2013-07-11 21:41:00,74.6,73.4,29.91,NNW,331,0.0,0.0,96,0.00,,,0.01,0,WeatherCatV1.10B1570,2013-07-12 01:41:00,
2013-07-11 21:46:00,74.6,73.7,29.91,NNW,331,0.0,0.0,97,0.00,,,0.01,0,WeatherCatV1.10B1570,2013-07-12 01:46:00,
2013-07-11 21:51:00,74.6,73.7,29.91,NNW,331,0.0,1.0,97,0.00,,,0.01,0,WeatherCatV1.10B1570,2013-07-12 01:51:00,
2013-07-11 21:56:00,74.4,73.5,29.91,NNW,331,0.0,0.0,97,0.00,,,0.01,0,WeatherCatV1.10B1570,2013-07-12 01:56:00,
2013-07-11 22:01:00,74.3,73.4,29.91,NNW,331,0.0,0.0,97,0.00,,,0.01,0,WeatherCatV1.10B1570,2013-07-12 02:01:00,
2013-07-11 22:06:00,74.2,73.0,29.90,NNW,331,1.0,2.0,96,0.00,,,0.01,0,WeatherCatV1.10B1570,2013-07-12 02:06:00,
2013-07-11 22:11:00,74.2,73.0,29.90,SW,227,2.0,2.0,96,0.00,,,0.01,0,WeatherCatV1.10B1570,2013-07-12 02:11:00,
2013-07-11 22:16:00,74.2,73.0,29.90,South,189,2.0,2.0,96,0.00,,,0.01,0,WeatherCatV1.10B1570,2013-07-12 02:16:00,
2013-07-11 22:21:00,74.2,73.0,29.90,South,176,2.0,3.0,96,0.00,,,0.01,0,WeatherCatV1.10B1570,2013-07-12 02:21:00,
2013-07-11 22:26:00,74.3,73.1,29.90,South,178,1.0,1.0,96,0.00,,,0.01,0,WeatherCatV1.10B1570,2013-07-12 02:26:00,
2013-07-11 22:31:00,74.2,73.0,29.91,South,187,1.0,3.0,96,0.00,,,0.01,0,WeatherCatV1.10B1570,2013-07-12 02:31:00,
2013-07-11 22:36:00,74.1,72.9,29.90,South,186,1.0,2.0,96,0.00,,,0.01,0,WeatherCatV1.10B1570,2013-07-12 02:36:00,
2013-07-11 22:41:00,74.0,72.5,29.91,South,186,0.0,0.0,95,0.00,,,0.01,0,WeatherCatV1.10B1570,2013-07-12 02:41:00,
2013-07-11 22:46:00,74.0,72.5,29.91,WNW,282,0.0,1.0,95,0.00,,,0.01,0,WeatherCatV1.10B1570,2013-07-12 02:46:00,
2013-07-11 22:51:00,73.9,72.7,29.90,West,281,0.0,1.0,96,0.00,,,0.01,0,WeatherCatV1.10B1570,2013-07-12 02:51:00,
2013-07-11 22:56:00,73.9,72.7,29.90,NNW,343,0.0,2.0,96,0.00,,,0.01,0,WeatherCatV1.10B1570,2013-07-12 02:56:00,
2013-07-11 23:01:00,73.8,72.6,29.90,NW,307,3.0,3.0,96,0.00,,,0.01,0,WeatherCatV1.10B1570,2013-07-12 03:01:00,
2013-07-11 23:06:00,73.8,72.6,29.90,NW,307,0.0,0.0,96,0.00,,,0.01,0,WeatherCatV1.10B1570,2013-07-12 03:06:00,
2013-07-11 23:11:00,73.7,72.5,29.91,NW,307,0.0,0.0,96,0.00,,,0.01,0,WeatherCatV1.10B1570,2013-07-12 03:11:00,
2013-07-11 23:16:00,73.6,72.4,29.91,NW,307,0.0,0.0,96,0.00,,,0.01,0,WeatherCatV1.10B1570,2013-07-12 03:16:00,
2013-07-11 23:21:00,73.6,72.4,29.90,WNW,287,0.0,1.0,96,0.00,,,0.01,0,WeatherCatV1.10B1570,2013-07-12 03:21:00,
2013-07-11 23:26:00,73.5,72.3,29.90,West,274,0.0,1.0,96,0.00,,,0.01,0,WeatherCatV1.10B1570,2013-07-12 03:26:00,
2013-07-11 23:31:00,73.5,72.3,29.90,West,274,0.0,0.0,96,0.00,,,0.01,0,WeatherCatV1.10B1570,2013-07-12 03:31:00,
2013-07-11 23:36:00,73.4,72.2,29.90,West,274,0.0,0.0,96,0.00,,,0.01,0,WeatherCatV1.10B1570,2013-07-12 03:36:00,
2013-07-11 23:41:00,73.4,72.2,29.90,West,274,0.0,0.0,96,0.00,,,0.01,0,WeatherCatV1.10B1570,2013-07-12 03:41:00,
2013-07-11 23:46:00,73.4,72.2,29.90,West,274,0.0,0.0,96,0.00,,,0.01,0,WeatherCatV1.10B1570,2013-07-12 03:46:00,
2013-07-11 23:51:00,73.3,72.1,29.90,WSW,247,0.0,2.0,96,0.00,,,0.01,0,WeatherCatV1.10B1570,2013-07-12 03:51:00,
2013-07-11 23:56:00,73.3,72.1,29.90,WSW,247,0.0,1.0,96,0.00,,,0.01,0,WeatherCatV1.10B1570,2013-07-12 03:56:00,